Preview of NWS' New Version of Forecast
This preview is not operational and should not be used for support decisions.

Regional Weather Roundup (RWR)

Issued by National Weather Service (NWS)

                            
000
ASUS43 KLSX 212307
RWRMO 

WEATHER SUMMARY FOR MISSOURI
NATIONAL WEATHER SERVICE SPRINGFIELD MO
600 PM CDT SAT SEP 21 2019

NOTE: "FAIR" INDICATES FEW OR NO CLOUDS BELOW 12,000 FEET WITH NO
       SIGNIFICANT WEATHER AND/OR OBSTRUCTIONS TO VISIBILITY.
       CURRENT SKY AND/OR WEATHER CONDITIONS ARE NOT AVAILABLE FOR
       CHILLICOTHE AND FARMINGTON.

MOZ001>031-035>038-043-044-053-054-220000-
...NORTHERN AND WESTERN MISSOURI...
  
CITY           SKY/WX    TMP DP  RH WIND       PRES   REMARKS
KANSAS CTY INT PTSUNNY   73  69  87 S15       29.93F                  
KANSAS C DTWN  MOSUNNY   76  69  79 S10       29.92F                  
LEE'S SUMMIT   CLOUDY    74  69  85 S15G22    29.96S                  
ST JOSEPH      PTSUNNY   77  69  76 S12G26    29.91S                  
CHILLICOTHE      N/A     75  72  90 S9        29.95S                  
KIRKSVILLE     SUNNY     77  71  82 SW8G20    29.96S                  
     
$$
MOZ066>068-077>081-088>096-101>105-220000-
...SOUTHWEST MISSOURI...
  
CITY           SKY/WX    TMP DP  RH WIND       PRES   REMARKS
SPRINGFIELD    PTSUNNY   84  66  54 S15       30.03S                  
JOPLIN         PTSUNNY   81  69  67 S10       30.01S                  
BRANSON        PTSUNNY   81  66  61 S8G16     30.08S                  
               
$$
MOZ032>034-039>042-045>050-055>058-069>072-220000-
...CENTRAL MISSOURI...  
  
CITY           SKY/WX    TMP DP  RH WIND       PRES   REMARKS
COLUMBIA       LGT RAIN  77  72  84 S6        30.01F                  
JEFFERSON CITY LGT RAIN  78  71  79 SE6       30.00F                  
ROLLA          MOSUNNY   81  67  62 S8        30.06S                  
SEDALIA        MOSUNNY   72  71  97 S10       30.01S                  
WHITEMAN AFB   CLOUDY    74  74 100 S14       29.95F                  
WARRENSBURG    DRIZZLE   72  70  94 S8G18     29.97F                  
OSAGE BEACH    MOSUNNY   81  70  69 S9        30.03F                  
               
$$
MOZ051-052-059>065-220000-
...EAST CENTRAL MISSOURI...
  
CITY           SKY/WX    TMP DP  RH WIND       PRES   REMARKS
ST LOUIS INTL  PTSUNNY   83  68  60 S12       30.05F                  
SPIRIT OF STL  SUNNY     83  70  64 S7        30.03S                  
ST CHARLES       N/A    N/A N/A N/A MISG      30.03S                  
                   
$$
MOZ072>076-082>087-097>100-106>115-220000-
...SOUTH CENTRAL AND SOUTHEAST MISSOURI...
  
CITY           SKY/WX    TMP DP  RH WIND       PRES   REMARKS
CAPE GIRARDEAU FAIR      84  64  50 S8        30.08S                  
FARMINGTON     SUNNY     81  69  67 S9        30.10F                  
POPLAR BLUFF   FAIR      84  65  52 S6        30.08F                  
WEST PLAINS    MOSUNNY   82  66  58 S9        30.09F                  
                                       
$$